Date String (YYYY-MM-DD hh:mm:ss) UTC,Instrument flags,Ambient pressure (hPa),Sample flow (lpm),Bypass flow (lpm),Sample temperature (°C),Ambient temperature (°C),ASC tube jacket temperature (°C),LED temperature (°C),Box temperature (°C),Sample RH (%),Span deviation,Mass concentration (μg/m³),Mass concentration (μg/m³),Mass concentration (μg/m³)
DateTimeUTC,F1_M11,P_M11,Q1_M11,Q2_M11,T1_M11,T2_M11,T3_M11,T4_M11,T5_M11,U1_M11,ZSPAN_M11,X2_M11,X0_M11,X1_M11
2023-03-05 01:00:00,,0816.3,5.00,0.00,22.8,21.2,00.0,31.6,24.6,15.7,-000.1,0008.42,0012.86,0007.70
2023-03-05 01:01:00,,0816.3,5.00,0.00,22.8,21.2,00.0,31.6,24.6,15.7,-000.2,0008.36,0012.85,0007.68
2023-03-05 01:02:00,,0816.3,5.00,0.00,22.8,21.2,00.0,31.6,24.6,15.7,-000.2,0008.28,0012.54,0007.67
2023-03-05 01:03:00,,0816.4,5.00,0.00,22.8,21.1,00.0,31.6,24.6,15.7,-000.5,0008.28,0012.61,0007.66
2023-03-05 01:04:00,,0816.4,5.00,0.00,22.8,21.1,00.0,31.6,24.5,15.7,-000.7,0008.25,0012.54,0007.64
2023-03-05 01:05:00,,0816.3,5.00,0.00,22.8,21.3,00.0,31.5,24.6,15.7,-000.5,0008.23,0012.52,0007.64
2023-03-05 01:06:00,,0816.2,5.03,0.00,22.9,22.3,00.0,31.5,24.8,15.6,-000.3,0008.17,0012.56,0007.61
2023-03-05 01:07:00,,0816.3,4.97,0.00,23.0,23.3,00.0,31.5,25.0,15.5,-000.2,0008.13,0012.43,0007.61
2023-03-05 01:08:00,,0816.3,4.98,0.00,23.0,23.3,00.0,31.6,25.0,15.5,-000.0,0008.12,0012.37,0007.61
2023-03-05 01:09:00,,0816.3,4.99,0.00,23.1,22.9,00.0,31.6,25.0,15.4,-000.2,0008.07,0012.28,0007.60
2023-03-05 01:10:00,,0816.3,4.97,0.00,23.1,22.6,00.0,31.7,24.9,15.4,-000.4,0008.00,0012.12,0007.56
2023-03-05 01:11:00,,0816.3,5.00,0.00,23.0,22.3,00.0,31.7,24.9,15.4,-000.5,0007.99,0011.84,0007.53
2023-03-05 01:12:00,,0816.3,5.00,0.00,23.0,22.1,00.0,31.7,24.8,15.4,-000.4,0007.97,0011.63,0007.50
2023-03-05 01:13:00,,0816.3,5.00,0.00,23.0,21.9,00.0,31.7,24.8,15.4,-000.3,0007.97,0011.66,0007.49
2023-03-05 01:14:00,,0816.3,5.00,0.00,23.0,21.7,00.0,31.7,24.8,15.5,-000.0,0008.01,0011.79,0007.47
2023-03-05 01:15:00,,0816.3,5.00,0.00,23.0,21.6,00.0,31.7,24.8,15.5,0000.3,0008.05,0012.14,0007.46
2023-03-05 01:16:00,,0816.3,5.01,0.00,23.0,21.5,00.0,31.7,24.8,15.5,0000.5,0008.06,0012.26,0007.45
2023-03-05 01:17:00,,0816.3,5.00,0.00,23.0,21.5,00.0,31.7,24.7,15.5,0000.3,0008.11,0012.03,0007.47
2023-03-05 01:18:00,,0816.3,4.99,0.00,22.9,21.4,00.0,31.7,24.7,15.5,0000.3,0008.15,0012.16,0007.46
2023-03-05 01:19:00,,0816.3,5.00,0.00,22.9,21.3,00.0,31.7,24.7,15.6,0000.1,0008.16,0012.24,0007.45
2023-03-05 01:20:00,,0816.2,5.00,0.00,22.9,21.3,00.0,31.7,24.7,15.6,0000.3,0008.17,0012.21,0007.44
2023-03-05 01:21:00,,0816.1,4.99,0.00,22.9,21.2,00.0,31.7,24.6,15.6,0000.3,0008.22,0012.46,0007.44
2023-03-05 01:22:00,,0816.1,5.01,0.00,22.9,21.2,00.0,31.7,24.6,15.6,0000.3,0008.24,0012.54,0007.45
2023-03-05 01:23:00,,0816.2,5.00,0.00,22.9,21.2,00.0,31.7,24.6,15.6,0000.3,0008.23,0012.48,0007.45
2023-03-05 01:24:00,,0816.2,5.00,0.00,22.9,21.1,00.0,31.6,24.6,15.6,0000.4,0008.21,0012.46,0007.44
2023-03-05 01:25:00,,0816.1,5.00,0.00,22.8,21.1,00.0,31.6,24.6,15.6,0000.5,0008.17,0012.35,0007.44
2023-03-05 01:26:00,,0816.2,5.01,0.00,22.8,21.1,00.0,31.6,24.6,15.6,0000.4,0008.11,0012.08,0007.44
2023-03-05 01:27:00,,0816.2,5.02,0.00,22.8,21.0,00.0,31.6,24.5,15.6,0000.2,0008.11,0011.88,0007.43
2023-03-05 01:28:00,,0816.2,4.98,0.00,22.8,21.0,00.0,31.6,24.5,15.6,0000.1,0008.06,0011.82,0007.41
2023-03-05 01:29:00,,0816.1,5.01,0.00,22.8,21.0,00.0,31.6,24.5,15.6,-000.1,0007.96,0011.65,0007.36
2023-03-05 01:30:00,,0816.0,5.01,0.00,22.8,21.0,00.0,31.6,24.5,15.6,0000.0,0007.94,0011.61,0007.35
2023-03-05 01:31:00,,0816.0,5.01,0.00,22.7,21.0,00.0,31.5,24.5,15.6,0000.1,0007.97,0011.66,0007.35
2023-03-05 01:32:00,,0815.9,5.02,0.00,22.7,20.9,00.0,31.5,24.5,15.6,-000.0,0007.95,0011.88,0007.33
2023-03-05 01:33:00,,0816.0,5.00,0.00,22.7,21.0,00.0,31.5,24.5,15.6,0000.1,0007.93,0011.77,0007.32
2023-03-05 01:34:00,,0816.1,5.00,0.00,22.7,21.0,00.0,31.5,24.4,15.6,-000.2,0007.96,0012.02,0007.34
2023-03-05 01:35:00,,0816.1,5.02,0.00,22.7,21.7,00.0,31.5,24.6,15.5,-000.4,0008.00,0012.41,0007.34
2023-03-05 01:36:00,,0816.2,4.96,0.00,22.8,22.7,00.0,31.5,24.8,15.4,-000.5,0008.03,0012.44,0007.35
2023-03-05 01:37:00,,0816.3,5.01,0.00,22.9,23.2,00.0,31.5,24.9,15.3,-000.3,0008.00,0012.36,0007.34
2023-03-05 01:38:00,,0816.4,5.00,0.00,22.9,22.8,00.0,31.6,24.9,15.3,0000.1,0007.98,0012.22,0007.34
2023-03-05 01:39:00,,0816.3,5.00,0.00,23.0,22.5,00.0,31.6,24.8,15.3,-000.0,0007.96,0012.14,0007.33
2023-03-05 01:40:00,,0816.3,5.01,0.00,23.0,22.2,00.0,31.6,24.8,15.3,-000.1,0007.97,0012.17,0007.35
2023-03-05 01:41:00,,0816.3,5.00,0.00,23.0,22.0,00.0,31.6,24.8,15.3,-000.1,0007.98,0012.17,0007.36
2023-03-05 01:42:00,,0816.3,5.01,0.00,22.9,21.8,00.0,31.6,24.8,15.3,-000.1,0007.99,0012.21,0007.37
2023-03-05 01:43:00,,0816.3,5.00,0.00,22.9,21.7,00.0,31.6,24.7,15.3,-000.3,0008.03,0012.23,0007.39
2023-03-05 01:44:00,,0816.3,5.01,0.00,22.9,21.5,00.0,31.6,24.7,15.2,-000.0,0008.02,0012.30,0007.41
2023-03-05 01:45:00,,0816.2,5.00,0.00,22.9,21.4,00.0,31.6,24.7,15.2,0000.3,0007.99,0012.35,0007.42
2023-03-05 01:46:00,,0816.2,5.01,0.00,22.9,21.4,00.0,31.6,24.7,15.2,0000.5,0008.02,0012.12,0007.41
2023-03-05 01:47:00,,0816.3,5.01,0.00,22.9,21.3,00.0,31.6,24.6,15.2,0000.7,0008.00,0012.08,0007.42
2023-03-05 01:48:00,,0816.3,5.00,0.00,22.9,21.2,00.0,31.6,24.6,15.2,0000.7,0008.06,0012.38,0007.44
2023-03-05 01:49:00,,0816.3,5.00,0.00,22.8,21.2,00.0,31.6,24.6,15.3,0000.6,0008.08,0012.41,0007.45
2023-03-05 01:50:00,,0816.3,5.01,0.00,22.8,21.1,00.0,31.6,24.6,15.3,0000.5,0008.12,0013.10,0007.45
2023-03-05 01:51:00,,0816.3,5.00,0.00,22.8,21.1,00.0,31.6,24.6,15.3,0000.6,0008.16,0013.19,0007.46
2023-03-05 01:52:00,,0816.3,5.00,0.00,22.8,21.1,00.0,31.6,24.5,15.3,0000.9,0008.18,0013.25,0007.46
2023-03-05 01:53:00,,0816.3,5.00,0.00,22.8,21.1,00.0,31.6,24.5,15.3,0000.8,0008.16,0013.19,0007.47
2023-03-05 01:54:00,,0816.3,5.00,0.00,22.8,21.0,00.0,31.6,24.5,15.3,0000.8,0008.10,0012.98,0007.46
2023-03-05 01:55:00,,0816.3,5.00,0.00,22.7,21.0,00.0,31.5,24.5,15.3,0000.7,0008.10,0012.72,0007.47
2023-03-05 01:56:00,,0816.3,5.00,0.00,22.7,21.0,00.0,31.5,24.5,15.3,0000.9,0008.12,0013.03,0007.45
2023-03-05 01:57:00,,0816.3,5.00,0.00,22.7,21.0,00.0,31.5,24.5,15.3,0001.1,0008.09,0012.74,0007.46
2023-03-05 01:58:00,,0816.3,5.00,0.00,22.7,21.0,00.0,31.5,24.5,15.3,0001.0,0008.10,0012.79,0007.45
2023-03-05 01:59:00,,0816.3,4.99,0.00,22.7,21.0,00.0,31.5,24.5,15.4,0000.8,0008.09,0012.73,0007.45
